Regional Weather Roundup
Issued by NWS

Home | Current Version | Previous Version | Text Only | Print | Product List | Glossary On
Versions: 1 2 3 4 5 6 7 8 9 10 11 12 13 14 15 16 17 18 19 20 21 22 23 24 25 26 27
000
ASUS44 KLIX 080813
RWRLA
LOUISIANA WEATHER ROUNDUP
NATIONAL WEATHER SERVICE NEW ORLEANS LA
200 AM CST THU DEC 08 2016

NOTE: "FAIR" INDICATES FEW OR NO CLOUDS BELOW 12,000 FEET WITH NO
      SIGNIFICANT WEATHER AND/OR OBSTRUCTIONS TO VISIBILITY.
      SKY/WX - SKY CONDITION AND SIGNIFICANT WEATHER.
      TMP - AIR TEMPERATURE.    DP   - DEWPOINT TEMPERATURE.
      RH  - RELATIVE HUMIDITY.  PRES - PRESSURE.
      HX  - HEAT INDEX.         WCI  - WIND CHILL INDEX.

*  THESE STATIONS ARE NOT NWS OR FAA STATIONS AND ARE NOT UNDER
   NWS QUALITY CONTROL.

LAZ040-048-061>063-065-066-069-080900-
SOUTHEAST LOUISIANA

CITY           SKY/WX    TMP DP  RH WIND       PRES   REMARKS
N.O. AUDUBON   NOT AVBL
N.O. INTL ARPT CLOUDY    57  56  96 E9        30.13F
N.O. LAKEFRONT CLOUDY    58  55  90 E16       30.14F
N.O. DOWNTOWN*   N/A     58  54  86 E8        30.14F
RESERVE*       FAIR      57  55  94 N5        30.16R
SLIDELL        PTCLDY    55  52  89 E3        30.15F
BATON ROUGE    CLOUDY    53  51  93 N6        30.19S
BOOTHVILLE     CLOUDY    58  58 100 N8        30.16S
BELLE CHASSE   CLOUDY    57  54  88 NE6       30.16F
BOGALUSA*      FAIR      49  47  91 N5        30.20R
GALLIANO*      DRIZZLE   60  55  86 NE6       30.16S
NEW ROADS*     CLOUDY    51  49  94 N5        30.21R
GONZALES*      CLOUDY    55  54  97 N6        30.18R
HAMMOND*       PTCLDY    50  48  93 NW3       30.19R FOG
HOUMA*         PTCLDY    57  56  94 E9        30.13F FOG
PORT FOURCHON* PTSUNNY   63  57  82 NE13      30.15F

$$

LAZ041-044-053-054-080900-
SOUTHWEST LOUISIANA

CITY           SKY/WX    TMP DP  RH WIND       PRES   REMARKS
LAKE CHARLES   LGT RAIN  54  54 100 N10       30.20R FOG
LAFAYETTE      CLOUDY    55  53  93 NE10      30.18R
PATTERSON      CLOUDY   N/A N/A N/A N10       30.16R HAZE
SALT POINT     NOT AVBL
NEW IBERIA     CLOUDY    56  51  84 NE12      30.18R
CHENAULT AIRPK CLOUDY    53  52  97 N9        30.20S

$$

LAZ027-028-080900-
CENTRAL LOUISIANA

CITY           SKY/WX    TMP DP  RH WIND       PRES   REMARKS
FORT POLK      LGT RAIN  51  50  97 N6        30.22S FOG
ALEXANDRIA INT CLOUDY    51  47  86 N8        30.22S
ALEXANDRIA     CLOUDY    51  47  86 CALM      30.23R

$$

LAZ001-002-080900-
NORTHWEST LOUISIANA

CITY           SKY/WX    TMP DP  RH WIND       PRES   REMARKS
SHREVEPORT     DRIZZLE   44  43  96 N15       30.32R FOG
BARKSDALE AFB  CLOUDY    42  42  99 N16       30.32R
DTN SHREVEPORT LGT RAIN  43  40  89 N12       30.33R FOG

$$

LAZ014-016-080900-
NORTHEAST LOUISIANA

CITY           SKY/WX    TMP DP  RH WIND       PRES   REMARKS
MONROE         CLOUDY    46  40  79 N14       30.30R
TALLULAH       CLOUDY    46  41  82 N10       30.27R

$$





USA.gov is the U.S. government's official web portal to all federal, state and local government web resources and services.